Regional Weather Roundup
Issued by NWS Little Rock, AR

Home | Current Version | Previous Version | Text Only | Print | Product List | Glossary Off
Versions: 1 2 3 4 5 6 7 8 9 10 11 12 13 14 15 16 17 18 19 20 21 22 23 24 25 26 27 28 29 30 31 32 33 34 35 36 37 38 39 40 41 42 43 44 45 46 47 48 49 50

166
ASUS44 KLZK 250015
RWRLZK

WEATHER ROUNDUP FOR ARKANSAS
NATIONAL WEATHER SERVICE LITTLE ROCK AR
700 PM CDT THU MAY 24 2018

NOTE: "FAIR" INDICATES FEW OR NO CLOUDS BELOW 12,000 FEET WITH NO
SIGNIFICANT WEATHER AND/OR OBSTRUCTIONS TO VISIBILITY.

ARZ001-003-010-029-250100-
NORTHWEST ARKANSAS

CITY           SKY/WX    TMP DP  RH WIND       PRES   REMARKS
FAYETTEVILLE   CLOUDY    74  66  76 SW6       30.06R
6HR MIN TEMP:  70; 6HR MAX TEMP:  81; 6HR PCP:  0.04;

FORT SMITH     CLOUDY    82  65  56 SE7       30.00F
6HR MIN TEMP:  75; 6HR MAX TEMP:  87; 6HR PCP:  0.27;

HARRISON       CLOUDY    70  66  87 CALM      30.05F
6HR MIN TEMP:  67; 6HR MAX TEMP:  83; 6HR PCP:  0.09;

BENTONVILLE    CLOUDY    73  70  88 SW3       30.07S HAZE
6HR MIN TEMP:  72; 6HR MAX TEMP:  84; 6HR PCP:  0.02;

ROGERS         CLOUDY    75  69  81 S7        30.06S
6HR MIN TEMP:  74; 6HR MAX TEMP:  81;

SILOAM SPGS    CLOUDY    73  68  83 E3        30.04F
HIGHFILL       CLOUDY    71  67  87 SW6       30.05S
6HR MIN TEMP:  69; 6HR MAX TEMP:  85; 6HR PCP:  0.11;

$$

ARZ004-005-016-250100-
NORTH CENTRAL ARKANSAS

CITY           SKY/WX    TMP DP  RH WIND       PRES   REMARKS
BATESVILLE     CLOUDY    76  70  82 NW6       30.04R THUNDER
6HR MIN TEMP:  76; 6HR MAX TEMP:  87;

FLIPPIN        CLOUDY    71  65  81 CALM      30.04F
6HR MIN TEMP:  71; 6HR MAX TEMP:  86;

MTN HOME       CLOUDY    72  64  76 W3        30.03F
6HR MIN TEMP:  72; 6HR MAX TEMP:  85;

$$

ARZ040-041-250100-
WEST CENTRAL ARKANSAS

CITY           SKY/WX    TMP DP  RH WIND       PRES   REMARKS
MENA           CLOUDY    77  73  88 E5        30.06S
MOUNT IDA      CLOUDY    77  75  93 CALM      30.03S
6HR MIN TEMP:  75; 6HR MAX TEMP:  89; 6HR PCP:  0.01;

$$

ARZ009-017-025-026-028-250100-
NORTHEAST ARKANSAS

CITY           SKY/WX    TMP DP  RH WIND       PRES   REMARKS
CORNING        FAIR      79  73  83 SW6       30.02F
JONESBORO      FAIR      78  72  81 E6        30.02S
6HR MIN TEMP:  73; 6HR MAX TEMP:  88; 6HR PCP:  0.03;

NEWPORT        FAIR      79  69  71 SE5       30.02F
6HR MIN TEMP:  78; 6HR MAX TEMP:  87;

WALNUT RIDGE     N/A     82  72  71 SE3       30.02F HX  87
6HR MIN TEMP:  78; 6HR MAX TEMP:  87;

BLYTHEVILLE    FAIR      80  69  69 W7        30.02R
6HR MIN TEMP:  80; 6HR MAX TEMP:  91;

$$

ARZ022-023-033-042-044-250100-
CENTRAL ARKANSAS

CITY           SKY/WX    TMP DP  RH WIND       PRES   REMARKS
LITTLE ROCK    PTSUNNY   83  70  64 E5        30.00F HX  87
6HR MIN TEMP:  82; 6HR MAX TEMP:  88;

N LITTLE ROCK    N/A     84  70  63 CALM      29.97F HX  88
6HR MIN TEMP:  82; 6HR MAX TEMP:  87;

JACKSONVILLE   MOSUNNY   88  70  54 SE3       30.00F HX  93
6HR MIN TEMP:  84; 6HR MAX TEMP:  89;

CONWAY         CLEAR     86  70  58 NW6       30.00F HX  90
SEARCY         CLOUDY    81  66  61 E5        30.01F THUNDER
6HR MIN TEMP:  78; 6HR MAX TEMP:  90;

HOT SPRINGS    MOSUNNY   81  71  71 W5        30.03R THUNDER HX  85
6HR MIN TEMP:  81; 6HR MAX TEMP:  90;

RUSSELLVILLE   MOSUNNY   78  74  87 CALM      30.00F
6HR MIN TEMP:  78; 6HR MAX TEMP:  87;

CLINTON        FAIR      81  68  65 VRB3      30.01F
$$

ARZ036-250100-
EAST ARKANSAS

CITY           SKY/WX    TMP DP  RH WIND       PRES   REMARKS
WEST MEMPHIS   LGT RAIN  75  73  93 CALM      30.01F
6HR MIN TEMP:  74; 6HR MAX TEMP:  89; 6HR PCP:  0.70;

$$

ARZ050-053-066-070-073-250100-
SOUTHWEST ARKANSAS

CITY           SKY/WX    TMP DP  RH WIND       PRES   REMARKS
ARKADELPHIA    FAIR      82  75  79 NW6       30.01S HAZE    HX  89
6HR MIN TEMP:  82; 6HR MAX TEMP:  90;

CAMDEN         FAIR      88  66  48 CALM      29.99F HX  90
TEXARKANA      SUNNY     85  71  63 SE5       30.00S HX  90
6HR MIN TEMP:  83; 6HR MAX TEMP:  88;

EL DORADO      FAIR      87  69  54 S5        30.00F HX  91
6HR MIN TEMP:  85; 6HR MAX TEMP:  90;

DE QUEEN       SUNNY     88  69  53 SE3       29.98R HX  92
6HR MIN TEMP:  84; 6HR MAX TEMP:  90;

$$

ARZ056-057-069-250100-
SOUTHEAST ARKANSAS

CITY           SKY/WX    TMP DP  RH WIND       PRES   REMARKS
PINE BLUFF     PTSUNNY   81  68  64 SW7       30.00F THUNDER
6HR MIN TEMP:  81; 6HR MAX TEMP:  89;

STUTTGART      FAIR      86  66  51 E5        30.01F HX  88
6HR MIN TEMP:  83; 6HR MAX TEMP:  87;

MONTICELLO     FAIR      86  71  60 E3        30.00F HX  91
6HR MIN TEMP:  85; 6HR MAX TEMP:  89;


$$






USA.gov is the U.S. government's official web portal to all federal, state and local government web resources and services.